Location: Sternwarte ZA, Rosenfeld-Brittheim
(48.2889°N, 8.6789°E)
Time: 06:07:14
(UTC+01:00)

ISS - Pass Details

Date: 06 December 2019
Orbit: 411 x 421 km, 51.6° (Epoch: 15 December)

Event Time Altitude Azimuth Distance (km) Brightness Sun altitude
Rises 18:23:47 0° 292° (WNW) 2,361 1.0 -17.8°
Reaches altitude 10° 18:25:52 10° 291° (WNW) 1,497 -0.2 -18.2°
Maximum altitude 18:29:14 81° 204° (SSW) 429 -3.8 -18.7°
Enters shadow 18:29:48 58° 130° (SE) 493 -3.7 -18.8°
